Weather History for KMQY - April, 2014

Change the Weather History Date:

Monday, April 14, 2014

  Actual Average Record
Temperature  
Mean Temperature 59 °F -  
Max Temperature 73 °F 67 °F 89 °F (2006)
Min Temperature 46 °F 49 °F 28 °F (1997)
Degree Days  
Heating Degree Days 6    
Growing Degree Days 9 (Base 50)    
Moisture  
Dew Point 54 °F    
Average Humidity 82    
Maximum Humidity 100    
Minimum Humidity 49    
Precipitation  
Precipitation 0.19 in - - ()
Sea Level Pressure  
Sea Level Pressure 29.83 in    
Wind  
Wind Speed 13 mph (WSW)    
Max Wind Speed 20 mph    
Max Gust Speed 26 mph    
Visibility 7 miles    
Events Rain    
Averages and records for this station are not official NWS values.
T = Trace of Precipitation, MM = Missing Value Source: NWS Daily Summary

Daily Weather History Graph

Daily Weather History Graph

Search for Another Location

Airport or City:

Trip Planner

Search our weather history database for the weather conditions in past years. The results will help you decide how hot, cold, wet, or windy it might be!

Date:

Astronomy

Apr. 14, 2014 Rise Set
Actual Time 6:14 AM CDT 7:18 PM CDT
Civil Twilight 5:47 AM CDT 7:45 PM CDT
Nautical Twilight 5:16 AM CDT 8:16 PM CDT
Astronomical Twilight 4:44 AM CDT 8:49 PM CDT
Moon 6:57 PM CDT (4/14) 5:44 AM CDT (4/14)
Length of Visible Light 13h 57m
Length of Day
13h 04m
Full, 100% of the Moon is Illuminated
Apr 14
Full
Apr 15
Full
Apr 22
Last Quarter
Apr 29
New
May 6
First Quarter

Hourly Weather History & Observations

Time (CDT) Temp. Windchill Dew Point Humidity Pressure Visibility Wind Dir Wind Speed Gust Speed Precip Events Conditions
12:56 AM 72.9 °F - 52.9 °F 49% 29.82 in 9.0 mi South 16.1 mph 20.7 mph N/A   Clear
1:56 AM 72.9 °F - 54.0 °F 51% 29.84 in 8.0 mi SSW 12.7 mph 24.2 mph N/A   Scattered Clouds
2:56 AM 70.9 °F - 55.9 °F 59% 29.80 in 8.0 mi South 10.4 mph - N/A   Scattered Clouds
3:56 AM 70.0 °F - 55.9 °F 61% 29.80 in 9.0 mi South 6.9 mph 17.3 mph N/A   Mostly Cloudy
4:56 AM 70.0 °F - 54.9 °F 59% 29.79 in 8.0 mi SSW 12.7 mph 21.9 mph 0.00 in   Mostly Cloudy
5:56 AM 63.9 °F - 56.8 °F 78% 29.83 in 5.0 mi SSW 15.0 mph 19.6 mph 0.01 in Rain Light Rain
6:56 AM 61.0 °F - 57.9 °F 90% 29.85 in 5.0 mi South 13.8 mph 20.7 mph 0.04 in Rain Light Rain
7:56 AM 61.0 °F - 57.9 °F 90% 29.82 in 7.0 mi South 17.3 mph 25.3 mph 0.00 in   Partly Cloudy
8:56 AM 61.9 °F - 56.8 °F 84% 29.85 in 7.0 mi SSW 12.7 mph 24.2 mph N/A   Partly Cloudy
9:56 AM 64.9 °F - 57.9 °F 78% 29.86 in 8.0 mi SSW 15.0 mph 24.2 mph N/A   Scattered Clouds
10:20 AM 66.2 °F - 57.2 °F 73% 29.85 in 10.0 mi South 11.5 mph 18.4 mph N/A   Mostly Cloudy
10:56 AM 65.8 °F - 57.9 °F 76% 29.88 in 10.0 mi SSW 13.8 mph 23.0 mph N/A   Overcast
11:56 AM 65.8 °F - 57.9 °F 76% 29.87 in 10.0 mi SSW 12.7 mph 19.6 mph N/A   Overcast
12:56 PM 66.9 °F - 57.9 °F 73% 29.86 in 9.0 mi SW 13.8 mph 23.0 mph N/A   Overcast
1:56 PM 68.0 °F - 57.9 °F 70% 29.83 in 10.0 mi SSW 11.5 mph - N/A   Overcast
2:56 PM 68.9 °F - 57.9 °F 68% 29.80 in 7.0 mi SSW 9.2 mph - N/A   Overcast
3:56 PM 68.9 °F - 56.8 °F 65% 29.77 in 10.0 mi SSW 8.1 mph - N/A   Mostly Cloudy
4:56 PM 68.9 °F - 57.9 °F 68% 29.77 in 10.0 mi SSW 11.5 mph - N/A   Overcast
5:56 PM 66.9 °F - 56.8 °F 70% 29.78 in 10.0 mi SW 9.2 mph - N/A   Mostly Cloudy
6:03 PM 66.2 °F - 57.2 °F 73% 29.75 in 8.0 mi SSW 8.1 mph - N/A   Mostly Cloudy
6:56 PM 63.9 °F - 59.0 °F 84% 29.78 in 10.0 mi Calm Calm - 0.03 in Rain Light Rain
7:32 PM 64.4 °F - 60.8 °F 88% 29.76 in 9.0 mi SSW 5.8 mph - 0.00 in   Overcast
7:56 PM 63.0 °F - 61.0 °F 93% 29.79 in 8.0 mi NW 10.4 mph - 0.00 in Rain Light Rain
8:24 PM 57.2 °F - 55.4 °F 94% 29.80 in 4.0 mi North 18.4 mph - 0.01 in Rain Light Rain
8:39 PM 55.4 °F - 55.4 °F 100% 29.81 in 4.0 mi NNW 12.7 mph - 0.02 in Rain Light Rain
8:56 PM 54.0 °F - 52.9 °F 96% 29.83 in 5.0 mi North 12.7 mph - 0.06 in Rain Heavy Rain
9:03 PM 53.6 °F - 53.6 °F 100% 29.81 in 3.0 mi NNW 10.4 mph - 0.01 in Rain Rain
9:29 PM 53.6 °F - 51.8 °F 94% 29.81 in 4.0 mi NNW 9.2 mph - 0.04 in Rain Rain
9:56 PM 50.9 °F - 50.0 °F 97% 29.88 in 6.0 mi NNW 12.7 mph - 0.05 in Rain Light Rain
10:20 PM 48.2 °F - 48.2 °F 100% 29.85 in 2.5 mi NNW 18.4 mph 23.0 mph 0.00 in Rain Light Rain
10:26 PM 48.2 °F - 48.2 °F 100% 29.86 in 4.0 mi NNW 18.4 mph 26.5 mph 0.01 in Rain Rain
11:05 PM 46.4 °F 39.5 °F 46.4 °F 100% 29.87 in 2.5 mi NNW 17.3 mph - 0.01 in Rain Rain
11:14 PM 46.4 °F 39.2 °F 46.4 °F 100% 29.87 in 4.0 mi NNW 18.4 mph 24.2 mph 0.01 in Rain Light Rain
11:23 PM 46.4 °F 39.0 °F 44.6 °F 93% 29.87 in 6.0 mi NNW 19.6 mph 25.3 mph 0.01 in Rain Light Rain
11:30 PM 46.4 °F 39.0 °F 44.6 °F 93% 29.88 in 6.0 mi NNW 19.6 mph 26.5 mph 0.02 in Rain Light Rain
11:45 PM 46.4 °F 39.5 °F 44.6 °F 93% 29.89 in 8.0 mi NNW 17.3 mph - 0.02 in Rain Light Rain